Waarnemingen

Advertentie
Mijn weer
Gunnarn A, Zweden (2126): temperatuur & dauwpunt: 12.01.2020 00:00:00 - 18.01.2020 00:00:00 (CET)Gunnarn A, Zweden (2126): windsnelheid & windstoten: 12.01.2020 00:00:00 - 18.01.2020 00:00:00 (CET)Gunnarn A, Zweden (2126): windrichting: 12.01.2020 00:00:00 - 18.01.2020 00:00:00 (CET)Gunnarn A, Zweden (2126): luchtdruk: 12.01.2020 00:00:00 - 18.01.2020 00:00:00 (CET)Gunnarn A, Zweden (2126): zicht: 12.01.2020 00:00:00 - 18.01.2020 00:00:00 (CET)Gunnarn A, Zweden (2126): neerslag: 12.01.2020 00:00:00 - 18.01.2020 00:00:00 (CET)
Datum & Tijd tt [°C] td [°C] ff [km/u] ff [kn] fx [km/u] fx [kn] dd ppp [hPa] vv [km] rr [mm]
18.01.2020 00:00:00 - - - - - - - - - -
17.01.2020 23:00:00 -5,7 -7,4 9 5 14 8 ONO 1009,3 10 0,0
17.01.2020 22:00:00 -5,3 -6,7 11 6 17 9 ONO 1009,4 4,0 0,0
17.01.2020 21:00:00 -4,4 -5,5 10 5 18 10 ONO 1009,5 3,9 0,0
17.01.2020 20:00:00 -3,6 -4,7 8 4 18 10 ONO 1009,2 33 0,0
17.01.2020 19:00:00 - - - - 18 10 - - - -
17.01.2020 18:00:00 -2,3 -2,7 5 3 8 4 ONO 1008,4 2,3 0,1
17.01.2020 17:00:00 -3,2 -3,5 3 1 4 2 NO 1008,8 18 0,0
17.01.2020 16:00:00 -5,4 -5,9 2 1 7 4 W 1008,6 0,7 0,0
17.01.2020 15:00:00 -3,4 -3,8 2 1 5 3 ONO 1008,2 22 0,0
17.01.2020 14:00:00 -4,0 -4,3 2 1 7 4 Z 1008,0 0,6 0,0
17.01.2020 13:00:00 -3,0 -3,4 3 2 6 3 NO 1007,9 5 0,0
17.01.2020 12:00:00 -2,9 -3,3 3 2 4 2 NW 1007,7 50 0,0
17.01.2020 11:00:00 -3,2 -3,5 2 1 4 2 NNW 1007,9 17 0,0
17.01.2020 10:00:00 -3,8 -4,3 3 1 10 5 ZZW 1007,9 34 0,0
17.01.2020 09:00:00 -3,6 -4,1 3 2 7 4 W 1007,4 13 0,0
17.01.2020 08:00:00 -2,3 -3,0 3 1 13 7 O 1007,6 37 0,0
17.01.2020 07:00:00 -0,9 -1,2 9 5 13 7 ZZW 1007,0 50 0,0
17.01.2020 06:00:00 -1,3 -2,3 4 2 21 11 O 1006,8 50 0,0
17.01.2020 05:00:00 1,9 -0,8 11 6 28 15 WZW 1006,1 50 0,0
17.01.2020 04:00:00 2,2 -0,4 20 11 32 17 ZW 1005,9 50 0,0
17.01.2020 03:00:00 1,7 -0,7 9 5 22 12 ZW 1006,1 50 0,0
17.01.2020 02:00:00 1,8 -0,6 15 8 36 19 ZW 1005,0 50 0,0
17.01.2020 01:00:00 2,3 -1,0 24 13 36 19 WZW 1004,3 50 0,0
17.01.2020 00:00:00 1,2 -1,2 8 5 28 15 ZW 1003,8 50 0,0
16.01.2020 23:00:00 1,9 -0,8 14 7 34 18 W 1003,2 50 0,0
16.01.2020 22:00:00 2,1 -0,8 18 10 50 27 W 1002,7 50 0,0
16.01.2020 21:00:00 1,9 -1,0 32 18 53 28 ZW 1001,4 17 0,0
16.01.2020 20:00:00 -0,9 -1,0 16 9 39 21 ZW 1001,1 30 0,0
16.01.2020 19:00:00 -11,2 -12,5 4 2 12 6 NO 1002,3 50 0,0
16.01.2020 18:00:00 -12,2 -13,6 0 0 9 5 N 1002,2 26 0,0
16.01.2020 17:00:00 -13,8 -15,5 2 1 7 4 Z 1002,4 31 0,0
16.01.2020 16:00:00 -11,7 -13,1 3 2 9 5 ONO 1002,0 17 0,0
16.01.2020 15:00:00 -9,5 -10,7 2 1 6 3 ZZO 1001,6 50 0,0
16.01.2020 14:00:00 -9,2 -10,4 2 1 9 5 OZO 1001,1 50 0,1
16.01.2020 13:00:00 -9,0 -10,1 4 2 6 4 ZZO 1001,3 2,0 0,1
16.01.2020 12:00:00 -9,5 -10,7 5 3 10 6 O 1000,9 - 0,0
16.01.2020 11:00:00 -9,9 -11,1 2 1 6 3 ZW 1000,7 0,5 0,0
16.01.2020 10:00:00 -10,3 -11,5 3 2 8 5 N 999,6 0,3 0,0
16.01.2020 09:00:00 -10,8 -12,0 5 3 9 5 W 999,2 0,5 0,0
16.01.2020 08:00:00 -11,3 -12,5 5 3 7 4 ONO 998,0 0,3 0,0
16.01.2020 07:00:00 -11,7 -13,0 0 0 8 4 N 997,5 9 0,1
16.01.2020 06:00:00 -12,7 -14,0 3 1 5 3 WNW 997,0 0,4 0,0
16.01.2020 05:00:00 -13,8 -15,4 0 0 5 3 N 996,3 37 0,0
16.01.2020 04:00:00 -13,7 -15,1 3 1 6 3 O 995,8 50 0,0
16.01.2020 03:00:00 -13,5 -14,7 2 1 8 4 W 995,7 50 0,0
16.01.2020 02:00:00 -12,8 -14,4 5 3 14 8 ZZW 994,9 50 0,0
16.01.2020 01:00:00 -12,1 -13,4 0 0 5 3 N 993,6 42 0,0
16.01.2020 00:00:00 -11,0 -11,9 2 1 8 5 N 992,6 33 0,0
15.01.2020 23:00:00 -9,1 -10,0 4 2 6 4 N 991,5 50 0,0
15.01.2020 22:00:00 -9,3 -10,0 0 0 5 3 N 990,9 50 0,0
15.01.2020 21:00:00 -8,2 -9,0 0 0 5 3 N 989,6 50 0,0
15.01.2020 20:00:00 -5,8 -6,5 3 2 5 3 ONO 988,5 50 0,0
15.01.2020 19:00:00 -5,6 -6,4 2 1 6 3 NW 987,1 42 0,0
15.01.2020 18:00:00 -4,0 -4,7 3 2 5 3 NW 986,2 10 0,3
15.01.2020 17:00:00 -3,9 -4,4 3 1 4 2 NW 985,2 1,4 0,6
15.01.2020 16:00:00 -4,2 -4,9 0 0 4 2 N 984,3 1,7 1,0
15.01.2020 15:00:00 -4,3 -5,0 0 0 4 2 N 983,9 1,4 0,3
15.01.2020 14:00:00 -4,4 -5,1 3 1 4 2 ONO 983,3 1,9 0,4
15.01.2020 13:00:00 -4,9 -5,6 3 2 - - O 983,1 4,5 0,1
15.01.2020 12:00:00 -5,5 -6,2 4 2 5 3 ONO 982,9 7 0,1
15.01.2020 11:00:00 -6,8 -7,7 4 2 6 4 ONO 983,2 50 0,0
15.01.2020 10:00:00 -7,6 -8,7 0 0 5 3 N 983,4 50 0,0
15.01.2020 09:00:00 -7,7 -8,6 5 3 8 4 O 983,9 50 0,0
15.01.2020 08:00:00 -7,0 -7,7 2 1 6 3 N 984,1 50 0,0
15.01.2020 07:00:00 -7,6 -8,5 3 1 7 4 O 984,2 50 0,0
15.01.2020 06:00:00 -8,4 -9,2 2 1 8 4 W 985,1 50 0,0
15.01.2020 05:00:00 -7,6 -8,1 3 2 7 4 W 985,6 0,7 0,0
15.01.2020 04:00:00 -5,6 -5,9 6 3 10 6 Z 985,6 1,6 0,0
15.01.2020 03:00:00 -1,7 -2,1 7 4 11 6 OZO 985,1 50 0,0
15.01.2020 02:00:00 -4,0 -4,4 4 2 14 8 ZZO 985,5 0,8 0,0
15.01.2020 01:00:00 -0,8 -1,5 6 3 16 9 Z 985,0 50 0,0
15.01.2020 00:00:00 0,1 -1,0 7 4 17 9 ZZO 984,5 50 0,0
14.01.2020 23:00:00 -0,7 -1,4 4 2 12 7 ZZO 984,3 50 0,0
14.01.2020 22:00:00 -0,8 -1,8 5 3 14 7 Z 983,9 50 0,0
14.01.2020 21:00:00 -0,5 -1,6 3 2 16 8 ONO 983,5 50 0,0
14.01.2020 20:00:00 -0,6 -1,7 8 4 14 8 ZW 983,0 50 0,0
14.01.2020 19:00:00 -0,3 -1,0 4 2 13 7 OZO 982,8 50 0,0
14.01.2020 18:00:00 0,3 -0,4 7 4 22 12 Z 982,4 50 0,0
14.01.2020 17:00:00 0,1 -0,2 11 6 18 10 Z 982,8 50 0,0
14.01.2020 16:00:00 -0,4 -0,5 5 3 19 11 OZO 982,8 35 0,2
14.01.2020 15:00:00 -0,9 -1,0 5 3 20 11 OZO 983,8 3,2 0,4
14.01.2020 14:00:00 -1,4 -1,7 7 4 24 13 ZO 985,1 2,5 1,0
14.01.2020 13:00:00 -1,7 -2,1 8 4 20 11 ZO 986,6 1,5 0,5
14.01.2020 12:00:00 -0,5 -2,6 9 5 30 16 ZZO 987,9 5 0,0
14.01.2020 11:00:00 -0,5 -3,5 14 7 31 17 ZZO 989,0 50 0,0
14.01.2020 10:00:00 -0,7 -4,2 17 9 28 15 Z 990,2 50 0,0
14.01.2020 09:00:00 -3,2 -5,8 8 4 15 8 ZZO 991,2 50 0,0
14.01.2020 08:00:00 -3,5 -7,1 4 2 10 5 O 991,8 50 0,0
14.01.2020 07:00:00 -3,9 -7,8 0 0 13 7 N 993,1 50 0,0
14.01.2020 06:00:00 -2,9 -7,6 6 3 16 9 ZO 993,6 50 0,0
14.01.2020 05:00:00 -4,1 -8,2 7 4 13 7 O 994,1 50 0,0
14.01.2020 04:00:00 -4,8 -7,2 5 3 12 7 OZO 994,8 50 0,0
14.01.2020 03:00:00 -3,9 -6,5 7 4 14 8 NO 995,0 50 0,0
14.01.2020 02:00:00 -1,4 -5,8 4 2 19 10 NO 995,1 50 0,0
14.01.2020 01:00:00 -0,5 -5,3 8 4 24 13 NNW 995,1 50 0,0
14.01.2020 00:00:00 -2,1 -4,1 3 2 24 13 ONO 995,3 50 0,0
13.01.2020 23:00:00 0,0 -3,2 13 7 33 18 WZW 995,3 50 0,0
13.01.2020 22:00:00 0,3 -3,3 21 12 41 22 ZW 994,8 50 0,0
13.01.2020 21:00:00 0,1 -3,6 21 12 40 22 ZW 994,3 50 0,0
13.01.2020 20:00:00 0,6 -3,5 26 14 37 20 WZW 993,8 50 0,0
13.01.2020 19:00:00 0,3 -3,6 15 8 48 26 WZW 993,6 50 0,0
13.01.2020 18:00:00 0,4 -3,9 30 16 47 26 WZW 992,9 50 0,0
13.01.2020 17:00:00 -0,3 -5,3 32 17 50 27 ZW 992,6 47 0,0
13.01.2020 16:00:00 -0,3 -6,3 27 14 45 25 ZZW 992,3 50 0,0
13.01.2020 15:00:00 -0,1 -6,9 19 11 41 22 ZW 992,8 50 0,0
13.01.2020 14:00:00 -0,1 -6,5 23 13 41 22 ZZW 993,1 50 0,0
13.01.2020 13:00:00 -0,2 -4,8 16 9 41 22 ZZW 993,5 50 0,0
13.01.2020 12:00:00 -0,4 -4,6 14 8 39 21 ZW 993,7 50 0,0
13.01.2020 11:00:00 -0,9 -4,4 16 8 41 22 ZW 993,8 50 0,0
13.01.2020 10:00:00 -0,8 -4,0 17 9 32 18 ZZW 994,0 50 0,0
13.01.2020 09:00:00 -1,4 -4,2 11 6 26 14 WZW 994,1 50 0,0
13.01.2020 08:00:00 -1,3 -5,0 16 9 37 20 WZW 993,7 50 0,0
13.01.2020 07:00:00 -1,4 -4,9 15 8 33 18 ZW 993,3 50 0,0
13.01.2020 06:00:00 -1,4 -4,9 21 12 43 23 ZW 992,8 50 0,0
13.01.2020 05:00:00 -0,7 -4,8 25 13 35 19 ZW 992,6 50 0,0
13.01.2020 04:00:00 -0,6 -4,7 18 10 38 21 ZW 992,7 50 0,0
13.01.2020 03:00:00 -0,2 -4,5 19 10 34 18 ZW 992,7 50 0,0
13.01.2020 02:00:00 -0,3 -4,5 23 12 40 22 WZW 992,4 50 0,0
13.01.2020 01:00:00 -0,3 -4,7 23 12 41 22 WZW 991,9 50 0,0
13.01.2020 00:00:00 -0,2 -4,8 27 14 39 21 ZW 991,4 50 0,0
12.01.2020 23:00:00 -0,2 -4,6 21 11 38 21 ZW 991,7 50 0,0
12.01.2020 22:00:00 -0,4 -4,3 22 12 35 19 ZW 991,8 50 0,0
12.01.2020 21:00:00 -0,6 -4,0 18 10 32 17 ZW 991,5 50 0,0
12.01.2020 20:00:00 -1,8 -4,5 5 3 24 13 ZW 991,7 50 0,0
12.01.2020 19:00:00 -0,6 -4,0 12 6 35 19 ZW 991,2 50 0,0
12.01.2020 18:00:00 -0,7 -4,9 19 10 31 17 WZW 991,4 50 0,0
12.01.2020 17:00:00 -0,2 -4,3 19 10 34 18 WZW 990,8 50 0,0
12.01.2020 16:00:00 -0,1 -4,2 20 11 35 19 WZW 990,4 50 0,0
12.01.2020 15:00:00 0,4 -3,9 18 10 37 20 WZW 990,0 50 0,0
12.01.2020 14:00:00 0,6 -3,5 22 12 35 19 WZW 989,3 50 0,0
12.01.2020 13:00:00 1,1 -3,2 23 13 39 21 WZW 988,9 46 0,0
12.01.2020 12:00:00 0,6 -3,9 17 9 27 14 ZZW 988,7 23 0,0
12.01.2020 11:00:00 -0,4 -5,4 15 8 27 15 WZW 988,9 20 0,0
12.01.2020 10:00:00 0,2 -4,6 12 6 28 15 WZW 988,4 22 0,0
12.01.2020 09:00:00 0,4 -4,4 18 10 29 16 WZW 987,6 29 0,0
12.01.2020 08:00:00 1,2 -3,7 14 7 37 20 W 986,7 49 0,0
12.01.2020 07:00:00 1,8 -2,7 21 11 49 27 W 985,6 50 0,0
12.01.2020 06:00:00 2,4 -1,2 29 16 51 28 WZW 984,9 50 0,0
12.01.2020 05:00:00 2,7 -1,5 31 17 45 25 WZW 984,9 35 0,0
12.01.2020 04:00:00 2,7 -2,2 31 17 47 25 WZW 984,5 32 0,0
12.01.2020 03:00:00 2,5 -1,8 23 12 44 24 WZW 984,2 45 0,0
12.01.2020 02:00:00 2,4 -1,2 29 15 49 26 WZW 983,8 46 0,0
12.01.2020 01:00:00 2,5 -0,9 27 14 53 29 WZW 983,7 47 0,0
12.01.2020 00:00:00 2,2 -0,9 31 17 49 26 WZW 984,1 35 0,0

tt = temperatuur
td = dauwpunt
ff = windsnelheid
fx = windstoten
dd = windrichting
ppp = luchtdruk
vv = zicht
rr = neerslag

Weerstations in de omgeving